Zurück zum Katalog

STARLINK-4159

AktivKommunikationVLEO
NORAD 53292·PAYLOAD·🇺🇸 United States

Gestartet Jul 24, 2022 von Cape Canaveral Space Force Station

Loading…

Nächste Überflüge (nächste 24 Stunden)

TLE

AktuellSource: CelesTrak SupGP

Epoche: Sep 14, 2026, 22:11 UTC

1 53292C 22086BC  26257.92479167  .00017608  00000+0  52032-3 0  2579
2 53292  53.1617  39.4651 0001078  70.6136 328.9236 15.34377845    14

Verfolge STARLINK-4159 in Echtzeit mit AllMySat

Download on the App Store